Location: Helion Bumpstead
(52.0500°N, 0.4000°E)
Time: 08:53:32
(UTC+00:00)

ADEOS II - Pass Details

Date: 15 November 2025
Orbit: 794 x 794 km, 98.8° (Epoch: 14 December)

Event Time Altitude Azimuth Distance (km) Brightness Sun altitude
Rises 03:37:28 0° 12° (NNE) 3,312 5.6 -33.7°
Reaches altitude 10° 03:39:51 10° 8° (N) 2,378 4.7 -33.3°
Enters shadow 03:40:46 15° 5° (N) 2,030 4.3 -33.2°
